sat.trackr.live / text

‹ back to catalog

STARLINK-3961

NORAD 52637 · 2022-052AR

PAYLOAD ACTIVE UNKNOWN

§ Identity

Operator
Country
US
Launch date
2022-05-14
Launch site
AFETR
Launch vehicle
Mass (kg)
RCS (m²)

Purposes: comms

External: N2YO · Heavens-Above · Gunter

§ Orbital elements

Epoch: 2026-05-24T18:51:40.680000Z

Period
95.44 min
Inclination
53.2161°
Eccentricity
0.0001340
Mean motion
15.08836557 rev/d
Perigee alt
538.8 km
Apogee alt
540.7 km
Semi-major
6,917.9 km
B*
-1.7334e-5
RAAN
277.5090°
Arg perigee
91.6468°
Mean anomaly
268.4678°
Rev number
22,342

§ Raw data

STARLINK-39611 52637U 22052AR  26144.78588750 -.00000564  00000+0 -17334-4 0  99972 52637  53.2161 277.5090 0001340  91.6468 268.4678 15.08836557223427

JSON: /api/v1/satellites/52637 · /tle

For live sub-satellite position, see the globe view (requires WebGL).

§ Visibility from observer

Set your observer location to see the next 7 days of passes ≥ 10°. The values pass through the URL so the page stays shareable.

No JS? Fill the form by hand. The geolocation button needs JavaScript.